Weather Service Report


663 
ASUS46 KLOX 012212
RWRCA 

SOUTHERN CALIFORNIA WEATHER ROUNDUP
NATIONAL WEATHER SERVICE OXNARD CALIFORNIA
300 PM PDT WED APR 01 2015

NOTE: "FAIR" INDICATES FEW OR NO CLOUDS BELOW 12,000 FEET WITH NO 
SIGNIFICANT WEATHER AND/OR OBSTRUCTIONS TO VISIBILITY.

  -  STATIONS PRECEEDED BY AN ASTERISK (*) ARE NOT NWS OR FAA 
     STATIONS AND ARE NOT SUBJECT TO NWS AND FAA QUALITY CONTROL.

CAZ041-042-087-012300-
LA AND ORANGE COUNTY COASTAL AREAS

  
CITY           SKY/WX    TMP DP  RH WIND       PRES   REMARKS
L.A. DOWNTOWN  SUNNY     72  50  45 VRB5      29.93F                  
L.A. AIRPORT   MOSUNNY   67  54  63 W13       29.94F                  
LONG BEACH     SUNNY     74  54  49 S8        29.93F                  

CITY           SKY/WX    TMP DP  RH WIND       PRES   REMARKS
AVALON           N/A     66 N/A N/A MISG        N/A                   
FULLERTON      SUNNY     75  52  44 VRB7      29.91F                  
*GETTY CENTER    N/A     64  52  63 SW13G20     N/A                   
HAWTHORNE      SUNNY     70  52  52 W13       29.94F                  
*LEO CARRILLO    N/A     70  57  63 SW9         N/A                   
*LOS ALAMITOS  SUNNY     72  56  57 SW10      29.93F                  
*REDONDO BEACH   N/A     71  58  65 W3        29.94F                  
SANTA ANA      MOSUNNY   71  53  52 SW6       29.93F                  
STA MONICA APT SUNNY     68  54  60 SW9       29.94F                  
*UCLA            N/A     64  52  63 SW12      29.90F                  

$$

CAZ547-548-048-012300-
LA COUNTY VALLEYS AND INLAND EMPIRE

  
CITY           SKY/WX    TMP DP  RH WIND       PRES   REMARKS
BURBANK        SUNNY     75  46  35 SE10      29.91F                  
VAN NUYS       SUNNY     75  46  35 SE10      29.91F                  

CITY           SKY/WX    TMP DP  RH WIND       PRES   REMARKS
CORONA AIRPORT MOCLDY    76  48  37 W9        29.92F                  
CHINO          MOSUNNY   78  44  29 W8        29.92F                  
*CLAREMONT       N/A     74  44  33 SW7         N/A                   
MARCH AFB      SUNNY     74  40  28 N6        29.93F                  
*NORTHRIDGE      N/A     75  41  29 SE3G9       N/A                   
ONTARIO        MOSUNNY   77  45  32 W12       29.92F                  
*PASADENA        N/A     75  54  46 NE3         N/A                   
POMONA         SUNNY     73  46  38 W7G17     29.96F                  
RIVERSIDE      SUNNY     77  46  33 W12       29.92F                  
SAN BERNARDINO MOSUNNY   75  37  25 W7        29.93F HAZE             
*SAN RAFAEL HI   N/A     76  49  37 S7G20       N/A                   
*SAUGUS          N/A     80  16   9 SW7         N/A                   
*WHITEMAN AP   SUNNY     73  45  35 SE9       29.95F                  
*WHITTIER HILL   N/A     77  56  48 SW7G20      N/A                   
*WOODLAND HILL   N/A     79  45  29 S6          N/A                   

$$

CAZ054-055-012300-
LA AND SAN BERNARDINO COUNTY MOUNTAINS

  
CITY           SKY/WX    TMP DP  RH WIND       PRES   REMARKS
*ACTON           N/A     78  17  10 SW10G22     N/A                   
*BIG BEAR AIRP CLEAR     61  -6   6 SW9G16    30.08S                  
*BIG PINES       N/A     65  13  13 SW2         N/A                   
*CHILAO          N/A     68  30  24 S8          N/A                   
MT WILSON NWS    N/A     66  46  48 MISG        N/A                   
SANDBERG       SUNNY     60  23  24 VRB6G17   30.04F                  
*WARM SPRINGS    N/A     72  20  14 W7          N/A                   

$$

CAZ028-029-059-060-099-012300-
ANTELOPE VALLEY AND SURROUNDING AREAS

  
CITY           SKY/WX    TMP DP  RH WIND       PRES   REMARKS
LANCASTER      SUNNY     75   5   6 W23       29.93F                  
PALMDALE       SUNNY     75   8   7 N9        29.94F                  
*POPPY PARK      N/A     70  15  12 W23G36      N/A                   

CITY           SKY/WX    TMP DP  RH WIND       PRES   REMARKS
29 PALMS       SUNNY     81  16   9 CALM      29.94F                  
BARSTOW/DAGGET SUNNY     79  13   8 NW14      29.88F                  
BISHOP         MOSUNNY   73  -6   4 SE15G26   29.86F                  
CHINA LAKE     PTSUNNY   80  12   7 SE15G23   29.86F                  
EDWARDS AFB    PTSUNNY   76   8   7 W14       29.90F                  
MOJAVE         FAIR      70  16  12 W24G30    29.95F                  
NEEDLES        SUNNY     89   7   4 SE8       29.80F                  
VICTORVILLE    SUNNY     75   9   7 W7        29.95F                  

$$

CAZ039-040-012300-
VENTURA AND SANTA BARBARA COUNTY COAST

  
CITY           SKY/WX    TMP DP  RH WIND       PRES   REMARKS
CAMARILLO      SUNNY     72  47  40 SW12      29.93F                  
NWS OXNARD       N/A     71  47  41 CALM      29.93F                  
OXNARD AIRPORT SUNNY     68  51  54 W12       29.94F                  
*POINT MUGU    MOSUNNY   71  57  61 W13       29.95F                  
SBA APT/GOLETA SUNNY     74  49  41 SE8       29.91F                  
*SANTA BARBARA   N/A     73  47  38 W2        30.00F                  

$$

CAZ044-045-012300-
VENTURA COUNTY VALLEYS

  
CITY           SKY/WX    TMP DP  RH WIND       PRES   REMARKS
*SIMI VALLEY     N/A     74  46  36 SW3       29.88F                  
*OJAI            N/A     77  46  33 W2        29.86F                  
*FILLMORE        N/A     76  47  34 CALM      29.82F                  

$$

CAZ053-012300-
VENTURA COUNTY MOUNTAINS

  
CITY           SKY/WX    TMP DP  RH WIND       PRES   REMARKS
*LOCKWOOD VLY    N/A     64  14  14 MISG        N/A                   
*ROSE VALLEY     N/A     73  43  33 MISG        N/A                   

$$

CAZ034-035-036-012300-
CENTRAL COAST AND SANTA YNEZ VALLEY

  
CITY           SKY/WX    TMP DP  RH WIND       PRES   REMARKS
SAN LUIS OBISP SUNNY     66  38  35 NW24G30   30.02F                  
SANTA MARIA    MOSUNNY   66  39  37 NW30G37   30.00F                  

CITY           SKY/WX    TMP DP  RH WIND       PRES   REMARKS
*CAL POLY SLO    N/A     66  45  45 SW8G20      N/A                   
*LOMPOC        SUNNY     64  37  36 NW22G35   30.03S                  
*PISMO BEACH     N/A     70  43  37 W12       30.00F                  
*SANTA YNEZ    FAIR      77  25  14 NW17G26   29.95R                  

$$

CAZ037-038-051-012300-
SAN LUIS OBISPO COUNTY INTERIOR AND CUYAMA VALLEY

  
CITY           SKY/WX    TMP DP  RH WIND       PRES   REMARKS
*CUYAMA          N/A     65  14  14 N3        29.97F                  
PASO ROBLES    SUNNY     73  25  16 CALM      30.02F                  

$$

CAZ032-033-061-012300-
SOUTHERN DESERTS

  
CITY           SKY/WX    TMP DP  RH WIND       PRES   REMARKS
BLYTHE         SUNNY     89  26  10 SW9       29.79F                  
IMPERIAL       SUNNY     89  25  10 N8        29.78F                  
PALM SPRINGS   SUNNY     91  28  10 NW15      29.80F                  
THERMAL        SUNNY     92  12   5 VRB5      29.75F                  

$$

ELSEWHERE ACROSS THE WESTERN UNITED STATES AND MEXICO

  
CITY           SKY/WX    TMP DP  RH WIND       PRES   REMARKS
DENVER, CO     PTSUNNY   66  25  21 NW21G30   29.71F                  
GRAND CANYON,  SUNNY     66  15  14 W10G22    29.99F                  
HONOLULU, HI   MOSUNNY   77  64  65 NE10      30.00F                  
KAHULUI, MAUI  MOSUNNY   82  64  54 E20G28    29.98F                  
LAKE TAHOE, CA CLOUDY    49  13  23 S12G24    30.02S                  
LAS VEGAS, NV  MOSUNNY   79   7   6 VRB3      29.82F                  
MAMMOTH LAKES, FAIR      55  -2   9 W21G37    30.02R                  
MEXICO CITY, M PTSUNNY   75  45  33 NE5       30.18F                  
PHOENIX, AZ    PTSUNNY   90  34  13 SW8       29.78F                  
PORTLAND, OR   PTSUNNY   48  38  68 NW17G29   30.32R                  
RENO, NV       CLOUDY    54  16  22 VRB7      30.03F                  
SALT LAKE CITY PTSUNNY   50  14  23 NW10G17   30.05R                  
SAN DIEGO, CA  MOSUNNY   69  53  56 SW6       29.95F                  
SAN FRANCISCO, PTSUNNY   61  44  53 W24G31    30.14S                  
SAN JOSE, CA   PTSUNNY   64  38  38 NW13G21   30.11F                  
SEATTLE, WA    LGT RAIN  52  34  50 S6        30.26S                  
TIJUANA, MEX   MOSUNNY   70  50  49 W12       29.96F                  

$$
  
STATION/POSITION TIME  TEMP    WIND        PRES    VSBY  WAVE
                       AIR SEA DIR/SP/G                  HT/PER
                 (UTC) (F)     (DEG/KT/KT) (MB)    (MI)  (FT/S)
POINT ARGUELLO B NOT AVBL
WEST SANTA BARBA 2200   56 56  320/ 27/ 31 1015.2F        11/10
POINT CONCEPTION NOT AVBL
EAST SANTA BARBA NOT AVBL
SANTA MONICA BAY 2200   62 64  260/  8/ 10 1014.2F         5/11

Return to Home page


Western Regional Climate Center, wrcc@dri.edu